GEESAT-3 09 (61019 NORAD) Tracking and Keplerian Element Data

This shows tracking and keplerian element data for the satellite.

Feedback or suggestion? Click here.




ElementValue
Catalog61019
NameGEESAT-3 09
Epoch Orbit552
Epoch Day286.83975579
Epoch Year2024
RAAN64.7916
Inclination49.9971
Eccentricity0.0011924
Argument of Perigee9.2283
Mean Anonmoly350.8876
Mean Motion14.92311685
Decay Rate0.00013189
L11 61019U 24159J 24286.83975579 .00013189 00000+0 12963-2 0 9997
L22 61019 49.9971 64.7916 0011924 9.2283 350.8876 14.92311685 5521



Live tracking and technical data element details for GEESAT-3 09 (NORAD 61019). GEESAT-3 09 can be tracked NOW for your location showing map with azimuth and elevation plus other details from your city location.







IsCatalogInMostPopularTable: catalog: 61019, numindb: 7
Update: records affected: 1



GetName: 61019 GEESAT-3 09

Hit Count: updated at: Wed, 04 Dec 2024 19:39:10 GMT